FW8396 Weather Reports


time (UTC)temp
C
wind
direction
speed
KPH
gust
KPH
rain 1hr
cm
rain 24hr
cm
rain mn
cm
humidity
%
barometer
mb
20260506160038 26 125 1.6 9.7 0.00 0.00 0.00 85 1012.4
20260506154532 26 128 0.0 8.0 0.00 0.00 0.00 85 1012.1
20260506153029 26 128 1.6 12.9 0.00 0.00 0.00 85 1012.2
20260506151532 26 0 1.6 6.4 0.00 0.00 0.00 85 1011.8
20260506150029 26 107 3.2 9.7 0.00 0.00 0.00 85 1011.7
20260506144527 26 167 3.2 11.3 0.00 0.00 0.00 86 1011.5
20260506143033 26 100 1.6 17.7 0.00 0.00 0.00 86 1011.3
20260506141528 26 160 3.2 12.9 0.00 0.00 0.00 87 1011.3
20260506140030 26 130 1.6 6.4 0.00 0.00 0.00 88 1011.5
20260506134530 25 116 3.2 14.5 0.00 0.00 0.00 88 1011.5
20260506133030 25 102 1.6 8.0 0.00 0.00 0.00 89 1011.8
20260506131543 25 147 1.6 6.4 0.00 0.00 0.00 90 1011.7
20260506130038 25 158 0.0 6.4 0.00 0.00 0.00 90 1011.8
20260506124531 25 0 1.6 6.4 0.00 0.00 0.00 90 1011.7
20260506123031 25 148 1.6 6.4 0.00 0.00 0.00 90 1011.6
20260506121530 24 217 1.6 9.7 0.00 0.00 0.00 91 1011.4
20260506120028 24 145 0.0 9.7 0.00 0.00 0.00 91 1011.2
20260506114528 24 144 1.6 8.0 0.00 0.00 0.00 91 1011.0
20260506113030 24 138 1.6 14.5 0.00 0.00 0.00 91 1010.8
20260506111531 24 115 0.0 11.3 0.00 0.00 0.00 91 1010.6
20260506110028 24 134 3.2 12.9 0.00 0.00 0.00 91 1010.5
20260506104530 24 79 3.2 11.3 0.00 0.00 0.00 91 1010.5
20260506103037 24 0 1.6 11.3 0.00 0.00 0.00 90 1010.3
20260506101528 24 140 3.2 11.3 0.00 0.00 0.00 90 1010.3
20260506100035 24 119 1.6 11.3 0.00 0.00 0.00 90 1010.1
20260506094535 24 159 1.6 11.3 0.00 0.00 0.00 90 1010.1
20260506093035 24 153 1.6 8.0 0.00 0.00 0.00 90 1010.2
20260506091531 24 173 1.6 9.7 0.00 0.00 0.00 89 1010.3
20260506090028 25 107 4.8 14.5 0.00 0.00 0.00 89 1010.5
20260506084530 25 0 1.6 12.9 0.00 0.00 0.00 88 1010.7
20260506083030 25 139 1.6 11.3 0.00 0.00 0.00 88 1010.7
20260506081533 25 0 1.6 8.0 0.00 0.00 0.00 88 1010.8
20260506073028 25 92 3.2 12.9 0.00 0.00 0.00 87 1011.0
20260506071528 25 0 1.6 11.3 0.00 0.00 0.00 87 1011.1
20260506061528 25 0 1.6 11.3 0.00 0.00 0.00 87 1011.6
20260506044532 25 160 3.2 9.7 0.00 0.00 0.00 88 1011.5
20260506043029 25 166 1.6 14.5 0.00 0.00 0.00 88 1011.4
20260506041528 25 124 1.6 11.3 0.00 0.00 0.00 87 1011.4
20260506040028 25 215 1.6 11.3 0.00 0.00 0.00 87 1011.5
20260506034528 25 137 1.6 17.7 0.00 0.00 0.00 86 1011.0
20260506033029 25 178 3.2 24.1 0.00 0.00 0.00 85 1011.0
20260506031530 25 0 3.2 14.5 0.00 0.00 0.00 85 1010.9
20260506030035 25 166 3.2 20.9 0.00 0.00 0.00 85 1010.8
20260506024541 25 143 6.4 14.5 0.00 0.00 0.00 85 1010.6
20260506023030 26 94 1.6 20.9 0.00 0.00 0.00 84 1010.3
20260506021530 26 151 3.2 11.3 0.00 0.00 0.00 84 1010.1
20260506020030 26 130 4.8 12.9 0.00 0.00 0.00 84 1010.1
20260506014535 26 151 4.8 16.1 0.00 0.00 0.00 83 1009.8
20260506013028 26 145 8.0 22.5 0.00 0.00 0.00 83 1009.4
20260506011531 26 23 3.2 12.9 0.00 0.00 0.00 82 1009.2
20260506010033 26 123 3.2 11.3 0.00 0.00 0.00 81 1009.2
20260506004530 26 165 3.2 14.5 0.00 0.00 0.00 80 1009.1
20260506003033 27 121 4.8 14.5 0.00 0.00 0.00 79 1008.9
20260506001532 27 123 4.8 19.3 0.00 0.00 0.00 79 1008.9
20260506000028 27 184 3.2 24.1 0.00 0.00 0.00 77 1008.7
20260505234534 27 200 11.3 22.5 0.00 0.00 0.00 77 1008.9
20260505233027 27 148 8.0 22.5 0.00 0.00 0.00 77 1008.9
20260505231529 27 189 4.8 25.7 0.00 0.00 0.00 78 1008.9
20260505230046 27 147 3.2 19.3 0.00 0.00 0.00 77 1008.9
20260505224529 27 142 4.8 20.9 0.00 0.00 0.00 77 1008.8
20260505223031 28 160 4.8 17.7 0.00 0.00 0.00 77 1008.7
20260505221529 28 174 4.8 17.7 0.00 0.00 0.00 76 1008.7
20260505220033 28 171 4.8 14.5 0.00 0.00 0.00 76 1009.0
20260505214529 28 155 3.2 14.5 0.00 0.00 0.00 76 1009.2
20260505213028 28 99 4.8 17.7 0.00 0.00 0.00 75 1009.1
20260505211530 28 132 3.2 19.3 0.00 0.00 0.00 76 1009.2
20260505210030 28 173 8.0 22.5 0.00 0.00 0.00 75 1009.3
20260505204527 28 176 8.0 29.0 0.00 0.00 0.00 75 1009.5
20260505203030 28 174 6.4 19.3 0.00 0.00 0.00 76 1009.7
20260505201529 28 140 4.8 17.7 0.00 0.00 0.00 76 1010.0
20260505200029 28 169 4.8 19.3 0.00 0.00 0.00 75 1010.2
20260505194529 28 261 4.8 14.5 0.00 0.00 0.00 74 1010.2
20260505193031 28 142 4.8 16.1 0.00 0.00 0.00 76 1010.3
20260505191529 28 164 4.8 17.7 0.00 0.00 0.00 77 1010.4
20260505190029 27 223 4.8 19.3 0.00 0.00 0.00 78 1010.8
20260505184530 27 203 9.7 17.7 0.00 0.00 0.00 78 1010.9
20260505183035 27 147 3.2 19.3 0.00 0.00 0.00 78 1010.9
20260505181529 27 179 3.2 17.7 0.00 0.00 0.00 79 1011.0
20260505180043 27 179 3.2 11.3 0.00 0.00 0.00 80 1011.3
20260505174532 27 184 3.2 16.1 0.00 0.00 0.00 80 1011.3
20260505173029 27 201 4.8 20.9 0.00 0.00 0.00 80 1011.5
20260505171531 26 144 3.2 17.7 0.00 0.00 0.00 80 1011.4
20260505170028 26 219 3.2 14.5 0.00 0.00 0.00 81 1011.7
20260505164528 26 180 4.8 16.1 0.00 0.00 0.00 81 1011.7
20260505163029 26 172 4.8 16.1 0.00 0.00 0.00 81 1011.6
20260505161530 26 171 4.8 24.1 0.00 0.00 0.00 81 1011.5